Date String (YYYY-MM-DD hh:mm:ss) UTC,Instrument flags,Ambient pressure (hPa),Sample flow (lpm),Bypass flow (lpm),Sample temperature (°C),Ambient temperature (°C),ASC tube jacket temperature (°C),LED temperature (°C),Box temperature (°C),Sample RH (%),Span deviation,Mass concentration (μg/m³),Mass concentration (μg/m³),Mass concentration (μg/m³)
DateTimeUTC,F1_M11,P_M11,Q1_M11,Q2_M11,T1_M11,T2_M11,T3_M11,T4_M11,T5_M11,U1_M11,ZSPAN_M11,X0_M11,X2_M11,X1_M11
2022-05-06 15:00:00,,0821.4,4.98,0.00,29.2,28.6,00.0,38.0,31.1,13.6,0000.0,0009.49,0003.63,0002.24
2022-05-06 15:01:00,,0821.3,5.00,0.00,29.3,28.6,00.0,38.0,31.1,12.7,0000.0,0009.37,0003.62,0002.22
2022-05-06 15:02:00,,0821.2,5.00,0.00,29.3,28.6,00.0,38.1,31.1,12.4,0000.0,0009.30,0003.58,0002.18
2022-05-06 15:03:00,,0821.2,5.00,0.00,29.3,28.6,00.0,38.1,31.1,11.6,0000.0,0008.56,0003.53,0002.15
2022-05-06 15:04:00,,0821.3,5.00,0.00,29.3,28.6,00.0,38.1,31.2,09.5,0000.0,0008.47,0003.50,0002.13
2022-05-06 15:05:00,,0821.3,4.99,0.00,29.4,28.7,00.0,38.1,31.2,09.6,0000.0,0008.36,0003.48,0002.10
2022-05-06 15:06:00,,0821.2,4.99,0.00,29.4,28.7,00.0,38.1,31.2,10.2,0000.0,0008.34,0003.47,0002.07
2022-05-06 15:07:00,,0821.2,5.01,0.00,29.4,28.6,00.0,38.2,31.1,10.2,0000.0,0008.46,0003.49,0002.06
2022-05-06 15:08:00,,0821.1,4.99,0.00,29.4,28.6,00.0,38.2,31.2,09.6,0000.0,0008.19,0003.49,0002.05
2022-05-06 15:09:00,,0821.2,5.01,0.00,29.4,28.6,00.0,38.2,31.2,09.9,0000.0,0007.88,0003.47,0002.04
2022-05-06 15:10:00,,0821.2,5.00,0.00,29.4,28.6,00.0,38.2,31.2,10.3,0000.0,0007.80,0003.47,0002.02
2022-05-06 15:11:00,,0821.3,5.00,0.00,29.4,28.6,00.0,38.2,31.2,10.7,0000.0,0007.83,0003.47,0002.01
2022-05-06 15:12:00,,0821.3,5.00,0.00,29.5,28.6,00.0,38.3,31.2,10.5,0000.0,0007.93,0003.48,0002.00
2022-05-06 15:13:00,,0821.4,4.99,0.00,29.5,28.7,00.0,38.3,31.3,10.3,0000.0,0008.56,0003.47,0001.98
2022-05-06 15:14:00,,0821.3,5.00,0.00,29.5,28.7,00.0,38.3,31.2,10.6,0000.0,0008.50,0003.46,0001.99
2022-05-06 15:15:00,,0821.2,5.00,0.00,29.5,28.6,00.0,38.3,31.2,09.9,0000.0,0008.41,0003.48,0001.98
2022-05-06 15:16:00,,0821.2,4.99,0.00,29.5,28.6,00.0,38.3,31.2,09.5,0000.0,0008.32,0003.46,0001.96
2022-05-06 15:17:00,,0821.2,5.00,0.00,29.5,28.7,00.0,38.3,31.3,09.1,0000.0,0008.30,0003.46,0001.95
2022-05-06 15:18:00,,0821.3,5.00,0.00,29.5,28.6,00.0,38.3,31.2,09.5,0000.0,0008.22,0003.47,0001.94
2022-05-06 15:19:00,,0821.3,5.01,0.00,29.5,28.6,00.0,38.3,31.2,09.3,0000.0,0008.26,0003.48,0001.93
2022-05-06 15:20:00,,0821.3,4.99,0.00,29.5,28.6,00.0,38.4,31.3,09.4,0000.0,0008.36,0003.50,0001.92
2022-05-06 15:21:00,,0821.3,5.00,0.00,29.5,28.6,00.0,38.4,31.3,09.3,0000.0,0008.43,0003.50,0001.92
2022-05-06 15:22:00,,0821.2,5.01,0.00,29.5,28.6,00.0,38.4,31.2,09.7,0000.0,0008.55,0003.46,0001.93
2022-05-06 15:23:00,,0821.1,4.99,0.00,29.6,28.6,00.0,38.4,31.3,09.3,0000.0,0008.72,0003.41,0001.93
2022-05-06 15:24:00,,0821.2,5.01,0.00,29.6,28.6,00.0,38.4,31.3,09.0,0000.0,0008.86,0003.44,0001.92
2022-05-06 15:25:00,,0821.3,5.00,0.00,29.6,28.6,00.0,38.4,31.3,09.2,0000.0,0009.00,0003.48,0001.92
2022-05-06 15:26:00,,0821.3,5.01,0.00,29.6,28.6,00.0,38.4,31.3,09.5,0000.0,0008.90,0003.46,0001.93
2022-05-06 15:27:00,,0821.3,5.00,0.00,29.6,28.6,00.0,38.4,31.3,09.5,0000.0,0009.35,0003.47,0001.95
2022-05-06 15:28:00,,0821.3,4.99,0.00,29.6,28.6,00.0,38.5,31.3,09.8,0000.0,0009.63,0003.47,0001.96
2022-05-06 15:29:00,,0821.4,5.00,0.00,29.6,28.6,00.0,38.5,31.3,09.3,0000.0,0009.66,0003.48,0001.97
2022-05-06 15:30:00,,0821.4,5.01,0.00,29.6,28.6,00.0,38.5,31.3,09.4,0000.0,0009.59,0003.46,0001.98
2022-05-06 15:31:00,,0821.4,5.00,0.00,29.6,28.6,00.0,38.5,31.3,09.3,0000.0,0009.82,0003.49,0002.01
2022-05-06 15:32:00,,0821.3,5.01,0.00,29.6,28.6,00.0,38.5,31.4,09.1,0000.0,0009.74,0003.47,0002.01
2022-05-06 15:33:00,,0821.3,4.98,0.00,29.7,28.6,00.0,38.5,31.4,09.3,0000.0,0009.57,0003.49,0002.02
2022-05-06 15:34:00,,0821.3,5.01,0.00,29.7,28.7,00.0,38.5,31.4,09.6,0000.0,0009.26,0003.48,0002.02
2022-05-06 15:35:00,,0821.3,5.00,0.00,29.7,28.7,00.0,38.5,31.4,09.0,0000.0,0008.38,0003.48,0002.04
2022-05-06 15:36:00,,0821.3,5.00,0.00,29.7,28.7,00.0,38.5,31.4,09.2,0000.0,0008.30,0003.47,0002.05
2022-05-06 15:37:00,,0821.3,5.01,0.00,29.7,28.7,00.0,38.6,31.4,08.8,0000.0,0008.81,0003.53,0002.05
2022-05-06 15:38:00,,0821.3,4.99,0.00,29.7,28.7,00.0,38.6,31.4,09.4,0000.0,0008.98,0003.58,0002.07
2022-05-06 15:39:00,,0821.2,5.02,0.00,29.7,28.7,00.0,38.6,31.4,09.1,0000.0,0008.69,0003.57,0002.09
2022-05-06 15:40:00,,0821.2,5.00,0.00,29.8,28.7,00.0,38.6,31.5,09.2,0000.0,0008.62,0003.53,0002.07
2022-05-06 15:41:00,,0821.2,5.00,0.00,29.8,28.7,00.0,38.6,31.4,09.1,0000.0,0008.63,0003.51,0002.05
2022-05-06 15:42:00,,0821.2,4.99,0.00,29.8,28.7,00.0,38.6,31.5,08.8,0000.0,0008.60,0003.51,0002.03
2022-05-06 15:43:00,,0821.3,5.00,0.00,29.8,28.8,00.0,38.6,31.5,09.2,0000.0,0009.03,0003.55,0002.02
2022-05-06 15:44:00,,0821.3,5.01,0.00,29.8,28.8,00.0,38.6,31.5,09.5,0000.0,0009.07,0003.57,0002.02
2022-05-06 15:45:00,,0821.3,4.98,0.00,29.8,28.8,00.0,38.7,31.6,09.8,0000.0,0009.22,0003.60,0002.01
2022-05-06 15:46:00,,0821.4,5.00,0.00,29.8,28.8,00.0,38.7,31.6,09.7,0000.0,0009.38,0003.60,0002.01
2022-05-06 15:47:00,,0821.4,5.01,0.00,29.8,28.8,00.0,38.7,31.6,09.4,0000.0,0009.73,0003.60,0002.00
2022-05-06 15:48:00,,0821.3,4.99,0.00,29.9,28.9,00.0,38.7,31.6,09.3,0000.0,0009.37,0003.56,0001.99
2022-05-06 15:49:00,,0821.3,5.01,0.00,29.9,28.9,00.0,38.7,31.6,09.5,0000.0,0009.16,0003.57,0001.97
2022-05-06 15:50:00,,0821.3,4.99,0.00,29.9,29.0,00.0,38.7,31.7,09.3,0000.0,0009.19,0003.59,0001.95
2022-05-06 15:51:00,,0821.3,5.00,0.00,29.9,29.0,00.0,38.7,31.7,09.1,0000.0,0009.29,0003.62,0001.95
2022-05-06 15:52:00,,0821.3,5.01,0.00,29.9,29.0,00.0,38.7,31.7,08.8,0000.0,0009.37,0003.66,0001.96
2022-05-06 15:53:00,,0821.2,4.99,0.00,29.9,29.0,00.0,38.8,31.7,08.6,0000.0,0009.46,0003.70,0001.97
2022-05-06 15:54:00,,0821.2,5.01,0.00,30.0,29.0,00.0,38.8,31.7,08.5,0000.0,0009.15,0003.70,0001.97
2022-05-06 15:55:00,,0821.3,4.99,0.00,30.0,29.0,00.0,38.8,31.7,09.0,0000.0,0009.74,0003.77,0001.98
2022-05-06 15:56:00,,0821.3,5.01,0.00,30.0,29.0,00.0,38.8,31.8,09.2,0000.0,0010.47,0003.79,0001.97
2022-05-06 15:57:00,,0821.2,5.02,0.00,30.0,29.0,00.0,38.8,31.8,08.9,0000.0,0010.48,0003.79,0001.97
2022-05-06 15:58:00,,0821.1,4.99,0.00,30.0,29.0,00.0,38.8,31.8,09.0,0000.0,0010.19,0003.77,0001.96
2022-05-06 15:59:00,,0821.2,5.00,0.00,30.0,29.1,00.0,38.9,31.8,09.4,0000.0,0010.11,0003.77,0001.97
